SV7RNH Weather Reports


Display with metric or nautical units.
time (UTC)temp
F
wind
direction
speed
MPH
gust
MPH
rain 1hr
in
rain 24hr
in
rain mn
in
humidity
%
barometer
mb
20260508071003 67 135 3.0 6.0 0.00 0.00 0.00 65 1019.1
20260508070503 67 0 0.0 4.0 0.00 0.00 0.00 66 1019.1
20260508070004 66 135 2.0 4.0 0.00 0.00 0.00 66 1019.0
20260508065504 66 135 2.0 4.0 0.00 0.00 0.00 67 1019.1
20260508065003 66 140 1.0 4.0 0.00 0.00 0.00 67 1019.0
20260508064503 66 218 1.0 4.0 0.00 0.00 0.00 67 1019.0
20260508064004 66 252 1.0 4.0 0.00 0.00 0.00 68 1018.9
20260508063503 66 228 2.0 5.0 0.00 0.00 0.00 68 1018.9
20260508063003 66 234 2.0 5.0 0.00 0.00 0.00 67 1018.8
20260508062503 66 256 2.0 4.0 0.00 0.00 0.00 67 1018.8
20260508062003 66 225 1.0 3.0 0.00 0.00 0.00 67 1018.6
20260508061504 66 0 0.0 3.0 0.00 0.00 0.00 67 1018.5
20260508061003 66 225 1.0 2.0 0.00 0.00 0.00 67 1018.5
20260508060503 66 225 1.0 2.0 0.00 0.00 0.00 67 1018.4
20260508060004 66 225 1.0 2.0 0.00 0.00 0.00 67 1018.4
20260508055503 65 0 0.0 2.0 0.00 0.00 0.00 67 1018.1
20260508055004 65 0 0.0 1.0 0.00 0.00 0.00 67 1018.1
20260508054503 65 0 0.0 1.0 0.00 0.00 0.00 67 1018.0
20260508054003 65 0 0.0 2.0 0.00 0.00 0.00 67 1017.9
20260508053503 65 0 0.0 2.0 0.00 0.00 0.00 67 1017.9
20260508053004 65 0 0.0 2.0 0.00 0.00 0.00 67 1017.9
20260508052503 65 0 0.0 2.0 0.00 0.00 0.00 68 1017.8
20260508052003 65 0 0.0 1.0 0.00 0.00 0.00 68 1017.8
20260508051503 64 0 0.0 1.0 0.00 0.00 0.00 68 1017.9
20260508051004 64 0 0.0 1.0 0.00 0.00 0.00 68 1017.8
20260508050504 64 0 0.0 0.0 0.00 0.00 0.00 68 1017.9
20260508050003 64 0 0.0 0.0 0.00 0.00 0.00 69 1017.8
20260508045503 64 0 0.0 0.0 0.00 0.00 0.00 69 1017.8
20260508045003 64 0 0.0 0.0 0.00 0.00 0.00 69 1017.8
20260508044504 63 0 0.0 2.0 0.00 0.00 0.00 69 1017.7
20260508044003 63 0 0.0 2.0 0.00 0.00 0.00 69 1017.7
20260508043503 63 0 0.0 2.0 0.00 0.00 0.00 70 1017.6
20260508043004 63 0 0.0 2.0 0.00 0.00 0.00 70 1017.5
20260508042504 63 0 0.0 2.0 0.00 0.00 0.00 70 1017.5
20260508042003 63 0 0.0 2.0 0.00 0.00 0.00 70 1017.3
20260508041504 62 0 0.0 2.0 0.00 0.00 0.00 70 1017.3
20260508041003 62 0 0.0 2.0 0.00 0.00 0.00 69 1017.4
20260508040503 62 0 0.0 2.0 0.00 0.00 0.00 69 1017.5
20260508040004 62 0 0.0 3.0 0.00 0.00 0.00 69 1017.4
20260508035503 62 0 0.0 3.0 0.00 0.00 0.00 69 1017.5
20260508035003 62 0 0.0 1.0 0.00 0.00 0.00 69 1017.5
20260508034503 62 0 0.0 1.0 0.00 0.00 0.00 69 1017.6
20260508034004 62 0 0.0 0.0 0.00 0.00 0.00 69 1017.8
20260508033503 62 0 0.0 0.0 0.00 0.00 0.00 69 1017.9
20260508033003 62 0 0.0 2.0 0.00 0.00 0.00 69 1017.9
20260508032503 62 0 0.0 2.0 0.00 0.00 0.00 69 1017.8
20260508032004 62 0 0.0 2.0 0.00 0.00 0.00 69 1017.8
20260508031503 62 0 0.0 2.0 0.00 0.00 0.00 69 1017.7
20260508031003 62 0 0.0 0.0 0.00 0.00 0.00 68 1017.6
20260508030504 62 0 0.0 0.0 0.00 0.00 0.00 68 1017.5
20260508030004 62 0 0.0 1.0 0.00 0.00 0.00 68 1017.5
20260508025503 62 0 0.0 2.0 0.00 0.00 0.00 68 1017.5
20260508025003 62 0 0.0 2.0 0.00 0.00 0.00 68 1017.5
20260508024504 62 0 0.0 2.0 0.00 0.00 0.00 68 1017.5
20260508024004 62 225 1.0 2.0 0.00 0.00 0.00 68 1017.4
20260508023503 62 0 0.0 2.0 0.00 0.00 0.00 68 1017.4
20260508023003 62 0 0.0 2.0 0.00 0.00 0.00 68 1017.3
20260508022504 62 0 0.0 0.0 0.00 0.00 0.00 67 1017.3
20260508022003 62 0 0.0 1.0 0.00 0.00 0.00 67 1017.3
20260508021503 62 0 0.0 1.0 0.00 0.00 0.00 67 1017.2
20260508021003 62 0 0.0 1.0 0.00 0.00 0.00 67 1017.2
20260508020504 62 0 0.0 0.0 0.00 0.00 0.00 67 1017.3
20260508020004 62 0 0.0 1.0 0.00 0.00 0.00 66 1017.2
20260508015503 62 0 0.0 1.0 0.00 0.00 0.00 66 1017.2
20260508015004 62 0 0.0 1.0 0.00 0.00 0.00 66 1017.2
20260508014503 63 0 0.0 2.0 0.00 0.00 0.00 66 1017.2
20260508014004 63 0 0.0 2.0 0.00 0.00 0.00 66 1017.2
20260508013504 63 0 0.0 2.0 0.00 0.00 0.00 66 1017.2
20260508013003 63 0 0.0 2.0 0.00 0.00 0.00 66 1017.3
20260508012503 63 0 0.0 2.0 0.00 0.00 0.00 66 1017.3
20260508012004 63 0 0.0 2.0 0.00 0.00 0.00 65 1017.4
20260508011503 63 0 0.0 2.0 0.00 0.00 0.00 65 1017.6
20260508011003 63 0 0.0 2.0 0.00 0.00 0.00 65 1017.7
20260508010503 63 0 0.0 3.0 0.00 0.00 0.00 64 1017.7
20260508010004 63 0 0.0 3.0 0.00 0.00 0.00 64 1017.7
20260508005503 63 0 0.0 3.0 0.00 0.00 0.00 64 1017.8
20260508005003 63 0 0.0 4.0 0.00 0.00 0.00 64 1017.7
20260508004503 63 225 1.0 4.0 0.00 0.00 0.00 64 1017.8
20260508004004 63 225 1.0 2.0 0.00 0.00 0.00 64 1017.9
20260508003503 63 0 0.0 2.0 0.00 0.00 0.00 64 1018.0
20260508003003 63 0 0.0 2.0 0.00 0.00 0.00 64 1017.9
20260508002504 63 0 0.0 2.0 0.00 0.00 0.00 64 1017.9
20260508002004 63 0 0.0 2.0 0.00 0.00 0.00 64 1018.0
20260508001503 63 0 0.0 2.0 0.00 0.00 0.00 64 1018.2
20260508001003 63 0 0.0 2.0 0.00 0.00 0.00 64 1018.2
20260508000504 63 0 0.0 2.0 0.00 0.00 0.00 64 1018.2
20260508000004 63 0 0.0 2.0 0.00 0.00 0.00 64 1018.3
20260507235503 63 0 0.0 2.0 0.00 0.00 0.00 64 1018.3
20260507235003 63 0 0.0 2.0 0.00 0.00 0.00 64 1018.3
20260507234504 63 0 0.0 2.0 0.00 0.00 0.00 64 1018.3
20260507234004 63 0 0.0 2.0 0.00 0.00 0.00 64 1018.2
20260507233504 63 0 0.0 2.0 0.00 0.00 0.00 64 1018.2
20260507233004 63 0 0.0 2.0 0.00 0.00 0.00 64 1018.3
20260507232503 63 0 0.0 2.0 0.00 0.00 0.00 64 1018.4
20260507232003 63 0 0.0 2.0 0.00 0.00 0.00 64 1018.5
20260507231504 64 0 0.0 2.0 0.00 0.00 0.00 64 1018.5
20260507231003 63 36 1.0 2.0 0.00 0.00 0.00 63 1018.5
20260507230503 64 0 0.0 2.0 0.00 0.00 0.00 63 1018.6
20260507230003 64 0 0.0 4.0 0.00 0.00 0.00 63 1018.5
20260507225504 64 10 1.0 4.0 0.00 0.00 0.00 63 1018.7
20260507225003 64 0 0.0 2.0 0.00 0.00 0.00 63 1018.7
20260507224504 64 0 0.0 2.0 0.00 0.00 0.00 63 1018.7
20260507224003 64 0 0.0 1.0 0.00 0.00 0.00 63 1018.8
20260507223504 64 0 0.0 2.0 0.00 0.00 0.00 62 1019.0
20260507223003 64 0 0.0 2.0 0.00 0.00 0.00 62 1018.9
20260507222503 64 0 0.0 2.0 0.00 0.00 0.00 62 1018.9
20260507222003 64 0 0.0 2.0 0.00 0.00 0.00 62 1019.0
20260507221504 64 0 0.0 3.0 0.00 0.00 0.00 62 1019.0
20260507221003 64 0 0.0 3.0 0.00 0.00 0.00 62 1018.9
20260507220503 64 42 2.0 3.0 0.00 0.00 0.00 62 1018.9
20260507220003 64 23 2.0 3.0 0.00 0.00 0.00 62 1018.8
20260507215504 65 0 0.0 3.0 0.00 0.00 0.00 62 1018.9
20260507215003 65 0 0.0 3.0 0.00 0.00 0.00 61 1018.9
20260507214503 65 0 0.0 3.0 0.00 0.00 0.00 61 1018.9
20260507214003 65 0 0.0 3.0 0.00 0.00 0.00 61 1018.8
20260507213504 65 0 0.0 2.0 0.00 0.00 0.00 61 1018.7
20260507213003 65 0 0.0 3.0 0.00 0.00 0.00 61 1018.8
20260507212503 65 23 1.0 3.0 0.00 0.00 0.00 61 1018.8
20260507212003 65 0 0.0 4.0 0.00 0.00 0.00 61 1018.8
20260507211504 65 0 0.0 4.0 0.00 0.00 0.00 61 1018.8
20260507211003 65 43 2.0 4.0 0.00 0.00 0.00 61 1018.8
20260507210503 65 0 0.0 4.0 0.00 0.00 0.00 61 1018.7
20260507210004 65 0 0.0 3.0 0.00 0.00 0.00 60 1018.7
20260507205503 65 0 0.0 3.0 0.00 0.00 0.00 60 1018.7
20260507205003 65 0 0.0 3.0 0.00 0.00 0.00 60 1018.7
20260507204504 65 0 0.0 2.0 0.00 0.00 0.00 60 1018.7
20260507204003 65 0 0.0 2.0 0.00 0.00 0.00 60 1018.7
20260507203503 66 0 0.0 2.0 0.00 0.00 0.00 60 1018.7
20260507203003 66 0 0.0 2.0 0.00 0.00 0.00 60 1018.7
20260507202504 66 0 0.0 2.0 0.00 0.00 0.00 59 1018.7
20260507202004 66 0 0.0 3.0 0.00 0.00 0.00 59 1018.7
20260507201503 66 0 0.0 4.0 0.00 0.00 0.00 59 1018.7
20260507201004 66 32 2.0 4.0 0.00 0.00 0.00 58 1018.7
20260507200503 66 0 0.0 3.0 0.00 0.00 0.00 58 1018.7
20260507200003 66 0 0.0 2.0 0.00 0.00 0.00 58 1018.7
20260507195503 67 0 0.0 2.0 0.00 0.00 0.00 58 1018.7
20260507195004 67 0 0.0 2.0 0.00 0.00 0.00 58 1018.7
20260507194503 67 162 2.0 2.0 0.00 0.00 0.00 58 1018.7
20260507194003 67 0 0.0 2.0 0.00 0.00 0.00 57 1018.8
20260507193503 67 0 0.0 2.0 0.00 0.00 0.00 57 1018.7
20260507193004 67 0 0.0 2.0 0.00 0.00 0.00 57 1018.7
20260507192504 68 0 0.0 2.0 0.00 0.00 0.00 56 1018.7
20260507192003 68 0 0.0 2.0 0.00 0.00 0.00 56 1018.6
20260507191503 68 0 0.0 2.0 0.00 0.00 0.00 55 1018.7
20260507191004 68 181 1.0 2.0 0.00 0.00 0.00 55 1018.7
20260507190504 68 0 0.0 2.0 0.00 0.00 0.00 55 1018.6
20260507190004 68 0 0.0 0.0 0.00 0.00 0.00 55 1018.7
20260507185504 68 0 0.0 0.0 0.00 0.00 0.00 55 1018.7
20260507185004 68 0 0.0 1.0 0.00 0.00 0.00 55 1018.5
20260507184504 68 0 0.0 2.0 0.00 0.00 0.00 54 1018.6
20260507184003 68 0 0.0 2.0 0.00 0.00 0.00 54 1018.5
20260507183504 68 0 0.0 2.0 0.00 0.00 0.00 54 1018.6
20260507183003 68 0 0.0 0.0 0.00 0.00 0.00 54 1018.4
20260507182503 68 0 0.0 0.0 0.00 0.00 0.00 53 1018.6
20260507182003 68 0 0.0 0.0 0.00 0.00 0.00 53 1018.4
20260507181504 68 0 0.0 0.0 0.00 0.00 0.00 53 1018.4
20260507181003 69 0 0.0 0.0 0.00 0.00 0.00 52 1018.3
20260507180503 69 0 0.0 2.0 0.00 0.00 0.00 52 1018.4
20260507180003 69 0 0.0 2.0 0.00 0.00 0.00 52 1018.2
20260507175504 69 0 0.0 2.0 0.00 0.00 0.00 52 1018.3
20260507175003 69 0 0.0 2.0 0.00 0.00 0.00 52 1018.4
20260507174503 69 0 0.0 3.0 0.00 0.00 0.00 51 1018.5
20260507174004 69 0 0.0 3.0 0.00 0.00 0.00 51 1018.5
20260507173503 70 181 1.0 4.0 0.00 0.00 0.00 50 1018.3
20260507173003 70 0 0.0 4.0 0.00 0.00 0.00 50 1018.1
20260507172503 70 147 1.0 4.0 0.00 0.00 0.00 50 1017.7
20260507172004 70 123 2.0 3.0 0.00 0.00 0.00 50 1017.6
20260507171503 70 0 0.0 4.0 0.00 0.00 0.00 51 1017.8
20260507171003 70 122 1.0 4.0 0.00 0.00 0.00 52 1018.0
20260507170504 70 52 2.0 5.0 0.00 0.00 0.00 52 1018.2
20260507170004 70 113 2.0 5.0 0.00 0.00 0.00 52 1018.2
20260507165503 70 156 2.0 5.0 0.00 0.00 0.00 52 1018.2
20260507165003 70 156 2.0 4.0 0.00 0.00 0.00 52 1018.4
20260507164504 70 142 2.0 5.0 0.00 0.00 0.00 52 1018.4
20260507164003 70 135 2.0 5.0 0.00 0.00 0.00 53 1018.4
20260507163503 70 135 2.0 4.0 0.00 0.00 0.00 52 1018.4
20260507163003 71 135 2.0 4.0 0.00 0.00 0.00 51 1018.3
20260507162504 71 135 2.0 4.0 0.00 0.00 0.00 50 1018.4
20260507162003 71 128 2.0 4.0 0.00 0.00 0.00 49 1018.6
20260507161503 71 130 2.0 6.0 0.00 0.00 0.00 48 1018.6
20260507161003 72 147 2.0 6.0 0.00 0.00 0.00 46 1018.6
20260507160503 72 147 2.0 5.0 0.00 0.00 0.00 46 1018.5
20260507160003 72 142 2.0 5.0 0.00 0.00 0.00 44 1018.6
20260507155504 72 156 2.0 5.0 0.00 0.00 0.00 43 1018.3
20260507155003 72 152 3.0 5.0 0.00 0.00 0.00 43 1018.3
20260507154503 73 135 1.0 3.0 0.00 0.00 0.00 43 1018.4
20260507154003 73 0 0.0 3.0 0.00 0.00 0.00 42 1018.5
20260507153504 73 0 0.0 4.0 0.00 0.00 0.00 41 1018.4
20260507153003 73 124 2.0 5.0 0.00 0.00 0.00 41 1018.7
20260507152503 73 226 1.0 5.0 0.00 0.00 0.00 41 1018.8
20260507152003 74 254 2.0 5.0 0.00 0.00 0.00 40 1018.8
20260507151504 74 239 2.0 4.0 0.00 0.00 0.00 40 1018.8
20260507151003 74 230 1.0 3.0 0.00 0.00 0.00 39 1018.8
20260507150503 75 0 0.0 2.0 0.00 0.00 0.00 35 1018.7
20260507150004 75 0 0.0 3.0 0.00 0.00 0.00 35 1018.6
20260507145503 76 225 1.0 3.0 0.00 0.00 0.00 34 1018.5
20260507145003 76 225 1.0 3.0 0.00 0.00 0.00 34 1018.6
20260507144503 76 225 1.0 3.0 0.00 0.00 0.00 34 1018.7
20260507144004 77 225 2.0 3.0 0.00 0.00 0.00 33 1018.7
20260507143503 77 225 1.0 3.0 0.00 0.00 0.00 34 1018.7
20260507143003 77 0 0.0 2.0 0.00 0.00 0.00 35 1018.7
20260507142503 77 0 0.0 4.0 0.00 0.00 0.00 35 1018.6
20260507142004 77 0 0.0 4.0 0.00 0.00 0.00 35 1018.6
20260507141503 77 247 1.0 4.0 0.00 0.00 0.00 35 1018.5
20260507141003 77 0 0.0 2.0 0.00 0.00 0.00 36 1018.5
20260507140504 76 227 1.0 2.0 0.00 0.00 0.00 36 1018.5
20260507140003 76 0 0.0 5.0 0.00 0.00 0.00 37 1018.5
20260507135503 75 0 0.0 5.0 0.00 0.00 0.00 37 1018.4
20260507135003 75 0 0.0 4.0 0.00 0.00 0.00 37 1018.4
20260507134504 75 227 2.0 4.0 0.00 0.00 0.00 37 1018.6
20260507134003 74 151 1.0 4.0 0.00 0.00 0.00 39 1018.6
20260507133503 73 20 1.0 4.0 0.00 0.00 0.00 40 1018.5
20260507133003 73 254 1.0 4.0 0.00 0.00 0.00 41 1018.6
20260507132504 73 244 2.0 4.0 0.00 0.00 0.00 41 1018.6
20260507132003 73 316 1.0 5.0 0.00 0.00 0.00 42 1018.6
20260507131503 72 347 1.0 5.0 0.00 0.00 0.00 43 1018.7
20260507131003 72 0 0.0 4.0 0.00 0.00 0.00 44 1018.8
20260507130504 72 0 0.0 5.0 0.00 0.00 0.00 44 1018.7
20260507130004 72 56 1.0 5.0 0.00 0.00 0.00 45 1018.7
20260507125503 71 0 0.0 3.0 0.00 0.00 0.00 46 1018.9
20260507125004 71 0 0.0 8.0 0.00 0.00 0.00 46 1018.9
20260507124504 71 0 0.0 8.0 0.00 0.00 0.00 45 1018.7
20260507124004 72 86 3.0 7.0 0.00 0.00 0.00 44 1018.7
20260507123503 72 136 1.0 6.0 0.00 0.00 0.00 44 1018.9
20260507123003 73 112 1.0 4.0 0.00 0.00 0.00 45 1019.1
20260507122504 73 76 2.0 4.0 0.00 0.00 0.00 48 1019.4
20260507122004 71 0 0.0 4.0 0.00 0.00 0.00 52 1019.7
20260507121503 69 138 2.0 6.0 0.00 0.00 0.00 54 1019.6
20260507121003 69 102 2.0 7.0 0.00 0.00 0.00 54 1019.7
20260507120504 69 92 3.0 8.0 0.00 0.00 0.00 55 1019.6
20260507120004 69 85 2.0 8.0 0.00 0.00 0.00 56 1019.6
20260507115503 70 0 0.0 6.0 0.00 0.00 0.00 57 1019.7
20260507115003 70 225 2.0 6.0 0.00 0.00 0.00 56 1019.7
20260507114504 70 0 0.0 3.0 0.00 0.00 0.00 56 1019.9
20260507114003 70 0 0.0 3.0 0.00 0.00 0.00 56 1020.1
20260507113503 70 0 0.0 2.0 0.00 0.00 0.00 55 1020.3
20260507113003 70 0 0.0 2.0 0.00 0.00 0.00 55 1020.3
20260507112504 70 225 1.0 2.0 0.00 0.00 0.00 54 1020.3
20260507112003 71 0 0.0 2.0 0.00 0.00 0.00 54 1020.3
20260507111503 71 0 0.0 2.0 0.00 0.00 0.00 53 1020.4
20260507111003 71 0 0.0 1.0 0.00 0.00 0.00 53 1020.5
20260507110503 71 0 0.0 1.0 0.00 0.00 0.00 52 1020.4
20260507110003 71 0 0.0 2.0 0.00 0.00 0.00 52 1020.3
20260507105503 71 0 0.0 2.0 0.00 0.00 0.00 52 1020.4
20260507105003 71 0 0.0 2.0 0.00 0.00 0.00 52 1020.2
20260507104503 71 0 0.0 2.0 0.00 0.00 0.00 51 1020.3
20260507104004 71 0 0.0 2.0 0.00 0.00 0.00 51 1020.3
20260507103503 71 0 0.0 3.0 0.00 0.00 0.00 50 1020.2
20260507103003 72 0 0.0 3.0 0.00 0.00 0.00 50 1020.3
20260507102503 72 0 0.0 2.0 0.00 0.00 0.00 50 1020.3
20260507102004 72 0 0.0 2.0 0.00 0.00 0.00 50 1020.3
20260507101503 73 0 0.0 3.0 0.00 0.00 0.00 49 1020.2
20260507101003 73 225 1.0 4.0 0.00 0.00 0.00 49 1020.2
20260507100503 73 0 0.0 4.0 0.00 0.00 0.00 49 1020.2
20260507100004 73 225 2.0 4.0 0.00 0.00 0.00 48 1020.1
20260507095503 73 0 0.0 4.0 0.00 0.00 0.00 49 1020.1
20260507095003 73 0 0.0 4.0 0.00 0.00 0.00 49 1020.0
20260507094504 73 234 1.0 4.0 0.00 0.00 0.00 49 1020.1
20260507094004 73 235 1.0 4.0 0.00 0.00 0.00 49 1020.0
20260507093504 73 230 2.0 4.0 0.00 0.00 0.00 48 1019.9
20260507093003 73 0 0.0 4.0 0.00 0.00 0.00 47 1019.8
20260507092503 73 0 0.0 2.0 0.00 0.00 0.00 46 1019.7
20260507092003 72 0 0.0 2.0 0.00 0.00 0.00 46 1019.5
20260507091504 72 0 0.0 2.0 0.00 0.00 0.00 47 1019.3
20260507091003 72 0 0.0 2.0 0.00 0.00 0.00 48 1019.3
20260507090503 72 0 0.0 2.0 0.00 0.00 0.00 49 1019.3
20260507090003 72 0 0.0 3.0 0.00 0.00 0.00 49 1019.4
20260507085504 72 0 0.0 3.0 0.00 0.00 0.00 50 1019.3
20260507085003 71 0 0.0 3.0 0.00 0.00 0.00 51 1019.2
20260507084503 71 0 0.0 3.0 0.00 0.00 0.00 51 1019.3
20260507084003 71 0 0.0 3.0 0.00 0.00 0.00 51 1019.3
20260507083504 71 0 0.0 3.0 0.00 0.00 0.00 51 1019.1
20260507083004 71 0 0.0 2.0 0.00 0.00 0.00 52 1019.2
20260507082503 71 0 0.0 3.0 0.00 0.00 0.00 52 1019.1
20260507082004 70 0 0.0 4.0 0.00 0.00 0.00 52 1019.0
20260507081503 71 240 1.0 4.0 0.00 0.00 0.00 52 1018.8
20260507081004 71 228 2.0 4.0 0.00 0.00 0.00 52 1018.8
20260507080503 71 232 2.0 4.0 0.00 0.00 0.00 51 1018.9
20260507080003 71 238 2.0 4.0 0.00 0.00 0.00 51 1018.9
20260507075504 72 224 2.0 4.0 0.00 0.00 0.00 49 1018.7
20260507075004 72 0 0.0 3.0 0.00 0.00 0.00 49 1018.6
20260507074503 72 0 0.0 3.0 0.00 0.00 0.00 49 1018.5
20260507074003 72 0 0.0 4.0 0.00 0.00 0.00 50 1018.5
20260507073503 71 192 1.0 4.0 0.00 0.00 0.00 50 1018.4
20260507073003 72 350 2.0 4.0 0.00 0.00 0.00 48 1018.2
20260507072503 72 1 1.0 3.0 0.00 0.00 0.00 48 1018.2
20260507072004 72 1 1.0 3.0 0.00 0.00 0.00 48 1018.2
20260507071504 73 0 0.0 3.0 0.00 0.00 0.00 50 1018.4